Stations météo

réclame
Mon MeteoGroup
Vitoria, Espagne (8080): Température de l'air & dewpoint: 15.02.2018 02:00:00 - 21.02.2018 02:00:00 (CET)Vitoria, Espagne (8080): Vitesse du vent: 15.02.2018 02:00:00 - 21.02.2018 02:00:00 (CET)Vitoria, Espagne (8080): Direction du vent: 15.02.2018 02:00:00 - 21.02.2018 02:00:00 (CET)Vitoria, Espagne (8080): reduced air pressure: 15.02.2018 02:00:00 - 21.02.2018 02:00:00 (CET)Vitoria, Espagne (8080): visibility: 15.02.2018 02:00:00 - 21.02.2018 02:00:00 (CET)
Date & Time tt [°C] td [°C] ff [km/h] ff [knt] dd ppp [hPa] vv [km]
21.02.2018 02:00:00 6,3 4,3 21 11 NNW 1018,0 -
21.02.2018 01:00:00 6,5 4,5 8 4 NNW 1018,9 12
21.02.2018 00:00:00 6,5 4,8 4 2 WSW 1019,3 -
20.02.2018 23:00:00 6,6 4,9 4 2 S 1020,3 -
20.02.2018 22:00:00 7,1 4,9 9 5 WNW 1020,5 15
20.02.2018 21:00:00 6,6 5,1 4 2 SSW 1021,1 -
20.02.2018 20:00:00 7,3 4,6 8 4 N 1021,5 -
20.02.2018 19:00:00 7,0 4,6 9 5 NNE 1021,6 12
20.02.2018 18:00:00 7,6 4,6 18 10 N 1021,4 -
20.02.2018 17:00:00 8,3 4,9 8 4 N 1020,7 -
20.02.2018 16:00:00 8,2 5,7 22 12 NNW 1020,8 9
20.02.2018 15:00:00 8,3 5,1 13 7 NNW 1021,1 -
20.02.2018 14:00:00 8,2 4,7 21 11 NW 1021,9 9
20.02.2018 13:00:00 8,2 5,0 18 10 NNW 1022,0 10
20.02.2018 12:00:00 8,2 5,0 24 13 NNW 1022,1 -
20.02.2018 11:00:00 8,2 5,5 21 11 NNW 1022,1 -
20.02.2018 10:00:00 8,0 6,0 15 8 NW 1021,9 8
20.02.2018 09:00:00 7,4 5,9 8 4 N 1021,8 -
20.02.2018 08:00:00 7,5 6,0 13 7 N 1021,3 9
20.02.2018 07:00:00 7,9 6,2 11 6 NNW 1020,8 10
20.02.2018 06:00:00 7,9 6,5 13 7 NNW 1020,7 -
20.02.2018 05:00:00 7,9 6,7 13 7 NW 1020,5 -
20.02.2018 04:00:00 8,5 6,5 13 7 NNW 1020,3 10
20.02.2018 03:00:00 8,4 7,5 4 2 N 1020,4 -
20.02.2018 02:00:00 8,6 7,7 4 2 WNW 1020,4 -
20.02.2018 01:00:00 8,5 7,6 4 2 SW 1020,3 8
20.02.2018 00:00:00 8,8 7,7 0 0 N 1020,2 -
19.02.2018 23:00:00 8,6 7,7 4 2 S 1020,4 -
19.02.2018 22:00:00 8,8 7,3 4 2 N 1020,4 9
19.02.2018 21:00:00 8,6 7,3 8 4 NW 1020,7 -
19.02.2018 20:00:00 8,7 7,6 4 2 N 1020,6 -
19.02.2018 19:00:00 8,9 7,5 9 5 NW 1020,4 10
19.02.2018 18:00:00 9,0 7,5 18 10 NW 1020,3 -
19.02.2018 17:00:00 9,9 7,8 18 10 NW 1019,9 -
19.02.2018 16:00:00 10,0 7,6 22 12 NNW 1020,0 15
19.02.2018 15:00:00 10,2 8,1 22 12 NNW 1020,1 -
19.02.2018 14:00:00 10,1 7,4 22 12 NW 1020,4 20
19.02.2018 13:00:00 10,0 8,2 15 8 NW 1020,9 20
19.02.2018 12:00:00 9,4 7,7 15 8 NW 1021,2 -
19.02.2018 11:00:00 9,2 7,4 11 6 NW 1021,0 -
19.02.2018 10:00:00 8,6 7,1 11 6 WNW 1021,1 15
19.02.2018 09:00:00 7,8 6,7 15 8 WNW 1021,3 -
19.02.2018 08:00:00 7,3 6,4 11 6 WSW 1021,4 10
19.02.2018 07:00:00 6,7 6,3 9 5 SW 1021,4 10
19.02.2018 06:00:00 6,9 6,3 11 6 WSW 1021,3 -
19.02.2018 05:00:00 7,0 5,9 9 5 WNW 1021,4 -
19.02.2018 04:00:00 6,9 6,0 9 5 W 1021,7 10
19.02.2018 03:00:00 7,3 5,9 13 7 WNW 1022,3 -
19.02.2018 02:00:00 7,4 5,8 11 6 NW 1022,6 -
19.02.2018 01:00:00 7,4 5,7 11 6 NW 1023,1 9
19.02.2018 00:00:00 7,0 5,9 2 1 SSW 1023,6 -
18.02.2018 23:00:00 7,2 5,8 5 3 WNW 1023,9 -
18.02.2018 22:00:00 7,4 6,0 9 5 NW 1024,3 15
18.02.2018 21:00:00 7,7 5,2 9 5 NNW 1024,6 -
18.02.2018 20:00:00 7,7 5,8 13 7 NW 1024,8 -
18.02.2018 19:00:00 7,8 5,7 16 9 NNW 1024,7 20
18.02.2018 18:00:00 7,7 5,7 11 6 NW 1025,0 -
18.02.2018 17:00:00 8,0 5,3 9 5 NW 1025,2 -
18.02.2018 16:00:00 8,3 4,8 11 6 NW 1025,3 20
18.02.2018 15:00:00 8,4 4,7 21 11 NW 1025,3 -
18.02.2018 14:00:00 7,5 4,4 15 8 NW 1026,3 20
18.02.2018 13:00:00 7,5 3,5 13 7 NW 1027,0 20
18.02.2018 12:00:00 8,2 2,7 15 8 NW 1027,1 -
18.02.2018 11:00:00 7,2 4,0 13 7 WNW 1027,8 -
18.02.2018 10:00:00 6,2 4,0 11 6 WNW 1027,7 15
18.02.2018 09:00:00 4,7 3,5 0 0 N 1028,2 -
18.02.2018 08:00:00 4,4 3,1 4 2 NNW 1028,1 10
18.02.2018 07:00:00 4,3 3,4 4 2 W 1028,2 12
18.02.2018 06:00:00 3,0 2,6 0 0 N 1028,7 -
18.02.2018 05:00:00 2,7 2,4 2 1 W 1029,0 -
18.02.2018 04:00:00 3,5 2,9 4 2 ESE 1029,4 12
18.02.2018 03:00:00 3,4 2,9 5 3 SW 1029,9 -
18.02.2018 02:00:00 2,9 2,3 8 4 WSW 1030,2 -
18.02.2018 01:00:00 3,5 2,8 0 0 N 1030,0 10
18.02.2018 00:00:00 3,2 2,2 2 1 SSE 1030,3 -
17.02.2018 23:00:00 4,1 2,8 0 0 N 1030,0 -
17.02.2018 22:00:00 4,7 2,6 5 3 NNW 1029,5 15
17.02.2018 21:00:00 3,7 2,1 8 4 WSW 1029,7 -
17.02.2018 20:00:00 4,4 2,8 9 5 W 1029,4 -
17.02.2018 19:00:00 5,5 2,5 11 6 NW 1029,0 20
17.02.2018 18:00:00 7,5 2,5 18 10 NNW 1027,9 -
17.02.2018 17:00:00 9,0 4,3 16 9 NNW 1027,4 -
17.02.2018 16:00:00 9,0 2,9 26 14 N 1027,0 15
17.02.2018 15:00:00 7,3 3,8 22 12 NNW 1027,6 -
17.02.2018 14:00:00 8,9 3,7 9 5 N 1027,3 15
17.02.2018 13:00:00 7,9 5,2 9 5 N 1028,1 12
17.02.2018 12:00:00 8,7 5,1 11 6 N 1027,5 -
17.02.2018 11:00:00 7,5 5,3 16 9 NNW 1027,8 -
17.02.2018 10:00:00 6,4 5,2 4 2 ESE 1027,3 8
17.02.2018 09:00:00 6,4 4,9 9 5 NNW 1027,0 -
17.02.2018 08:00:00 6,4 5,3 8 4 E 1026,3 -
17.02.2018 07:00:00 6,9 4,6 16 9 NW 1025,7 12
17.02.2018 06:00:00 7,4 5,3 9 5 NW 1025,1 -
17.02.2018 05:00:00 8,7 6,6 15 8 NW 1024,0 -
17.02.2018 04:00:00 9,8 7,2 11 6 N 1023,1 15
17.02.2018 03:00:00 10,5 8,3 15 8 NNW 1022,6 -
17.02.2018 02:00:00 11,2 8,6 13 7 WNW 1021,7 -
17.02.2018 01:00:00 10,4 8,2 2 1 E 1021,6 15
17.02.2018 00:00:00 10,7 8,6 8 4 N 1021,3 -
16.02.2018 23:00:00 10,6 8,6 0 0 N 1021,2 -
16.02.2018 22:00:00 10,8 8,7 9 5 SSW 1020,9 15
16.02.2018 21:00:00 10,7 8,5 0 0 N 1020,8 -
16.02.2018 20:00:00 12,5 9,0 5 3 SSW 1020,5 -
16.02.2018 19:00:00 14,0 9,3 9 5 WSW 1020,1 20
16.02.2018 18:00:00 15,0 9,5 13 7 SSW 1019,8 -
16.02.2018 17:00:00 16,0 9,5 22 12 WSW 1019,6 -
16.02.2018 16:00:00 16,3 9,8 16 9 SSW 1019,7 25
16.02.2018 15:00:00 16,6 10,2 21 11 SSW 1020,0 -
16.02.2018 14:00:00 16,2 10,1 24 13 SSW 1021,0 25
16.02.2018 13:00:00 14,8 9,8 18 10 SSW 1022,2 25
16.02.2018 12:00:00 15,4 10,4 18 10 SSW 1022,6 -
16.02.2018 11:00:00 13,4 10,4 16 9 SW 1023,3 -
16.02.2018 10:00:00 11,0 9,7 0 0 N 1023,8 20
16.02.2018 09:00:00 8,9 8,1 2 1 ENE 1024,1 -
16.02.2018 08:00:00 9,7 8,9 5 3 WSW 1023,7 20
16.02.2018 07:00:00 9,2 7,8 4 2 SW 1023,7 20
16.02.2018 06:00:00 10,7 8,6 8 4 SSW 1023,4 -
16.02.2018 05:00:00 11,1 9,0 5 3 SW 1023,3 -
16.02.2018 04:00:00 10,9 9,0 8 4 SSW 1023,8 20
16.02.2018 03:00:00 9,9 8,4 0 0 N 1024,2 -
16.02.2018 02:00:00 11,9 9,3 13 7 SW 1023,8 -
16.02.2018 01:00:00 11,7 9,3 8 4 SW 1023,8 20
16.02.2018 00:00:00 12,3 9,3 8 4 S 1023,9 -
15.02.2018 23:00:00 13,4 9,6 9 5 S 1023,5 -
15.02.2018 22:00:00 12,4 9,5 0 0 N 1023,7 20
15.02.2018 21:00:00 12,6 9,4 8 4 WSW 1023,2 -
15.02.2018 20:00:00 13,1 9,3 16 9 WSW 1023,0 -
15.02.2018 19:00:00 12,9 9,3 15 8 SSW 1022,6 20
15.02.2018 18:00:00 13,6 9,2 24 13 SW 1022,3 -
15.02.2018 17:00:00 13,8 9,2 16 9 WSW 1022,1 -
15.02.2018 16:00:00 13,9 9,3 8 4 SW 1021,9 25
15.02.2018 15:00:00 13,7 9,7 22 12 SW 1022,1 -
15.02.2018 14:00:00 14,3 10,6 26 14 SW 1022,1 20
15.02.2018 13:00:00 13,0 9,3 31 17 SW 1022,5 20
15.02.2018 12:00:00 12,9 9,3 29 16 SSW 1022,4 -
15.02.2018 11:00:00 12,5 9,0 31 17 SSW 1022,1 -
15.02.2018 10:00:00 12,4 8,8 26 14 SSW 1021,7 20
15.02.2018 09:00:00 10,5 7,7 22 12 SW 1021,7 -
15.02.2018 08:00:00 10,4 7,6 29 16 SW 1020,8 20
15.02.2018 07:00:00 10,1 7,8 13 7 W 1020,8 15
15.02.2018 06:00:00 10,2 8,1 34 18 SW 1020,3 -
15.02.2018 05:00:00 9,9 7,8 15 8 SSW 1020,1 -
15.02.2018 04:00:00 9,8 7,7 15 8 SW 1019,9 15
15.02.2018 03:00:00 10,6 8,0 11 6 S 1019,6 -
15.02.2018 02:00:00 10,4 7,8 13 7 SSW 1019,1 -

tt = Température de l'air
td = dewpoint
ff = Vitesse du vent
dd = Direction du vent
ppp = reduced air pressure
vv = visibility

stations d'obs. à proximité